This is the latest recevied weather packets stored in our database for station/object K0VSC-1. If no packets are shown the sender has not sent any weather packets the latest 10 day(s).
| Time | Temp. | Humidity | Pressure | Rain* | Wind** | Luminosity | Snow |
|---|---|---|---|---|---|---|---|
| 1778008985 | 6.67° C | 45% | 1011.7 hPa | 0 mm | - | 283 W/m² | - |
| 1778008685 | 6.67° C | 47% | 1011.6 hPa | 0 mm | - | 271 W/m² | - |
| 1778008385 | 6.67° C | 47% | 1011.7 hPa | 0 mm | - | 309 W/m² | - |
| 1778008085 | 6.67° C | 46% | 1011.7 hPa | 0 mm | - | 343 W/m² | - |
| 1778007785 | 6.67° C | 47% | 1011.8 hPa | 0 mm | - | 345 W/m² | - |
| 1778007485 | 6.11° C | 46% | 1011.8 hPa | 0 mm | - | 339 W/m² | - |
| 1778007185 | 6.11° C | 46% | 1011.7 hPa | 0 mm | - | 309 W/m² | - |
| 1778006885 | 6.11° C | 47% | 1011.9 hPa | 0 mm | - | 221 W/m² | - |
| 1778006585 | 6.11° C | 47% | 1011.8 hPa | 0 mm | - | 258 W/m² | - |
| 1778006285 | 6.11° C | 47% | 1011.7 hPa | 0 mm | - | 308 W/m² | - |
| 1778005985 | 6.11° C | 47% | 1011.7 hPa | 0 mm | - | 512 W/m² | - |
| 1778005685 | 6.11° C | 46% | 1011.7 hPa | 0 mm | - | 526 W/m² | - |
| 1778005385 | 6.11° C | 47% | 1011.7 hPa | 0 mm | - | 485 W/m² | - |
| 1778005085 | 5.56° C | 48% | 1011.7 hPa | 0 mm | - | 452 W/m² | - |
| 1778004785 | 5.56° C | 50% | 1011.6 hPa | 0 mm | - | 294 W/m² | - |
| 1778004485 | 5.56° C | 49% | 1011.7 hPa | 0 mm | - | 264 W/m² | - |
| 1778004185 | 5.56° C | 50% | 1011.6 hPa | 0 mm | - | 264 W/m² | - |
| 1778003886 | 5.56° C | 50% | 1011.6 hPa | 0 mm | - | 230 W/m² | - |
| 1778003585 | 5.56° C | 49% | 1011.6 hPa | 0 mm | - | 174 W/m² | - |
| 1778003286 | 5.56° C | 49% | 1011.6 hPa | 0 mm | - | 197 W/m² | - |
| 1778002985 | 5.56° C | 49% | 1011.4 hPa | 0 mm | - | 299 W/m² | - |
| 1778002685 | 5.56° C | 49% | 1011.4 hPa | 0 mm | - | 260 W/m² | - |
| 1778002385 | 5.56° C | 49% | 1011.3 hPa | 0 mm | - | 239 W/m² | - |
| 1778002086 | 5.56° C | 50% | 1011.4 hPa | 0 mm | - | 250 W/m² | - |
| 1778001785 | 5.56° C | 50% | 1011.4 hPa | 0 mm | - | 267 W/m² | - |
* Rain latest hour (hover to see other rain measurements)
** Current wind speed in m/s (hover to see current wind gust speed)